Fox Island, WA

12:04 AM PST on February 08, 2016 (GMT -0800)
Tacoma Narrows

Weather History for KTIW - May, 2013

Change the Weather History Date:

Sunday, May 5, 2013

  Actual Average Record
Temperature  
Mean Temperature 69 °F -  
Max Temperature 81 °F 58 °F 81 °F (2013)
Min Temperature 57 °F 43 °F 41 °F (1999)
Cooling Degree Days 4    
Growing Degree Days 19 (Base 50)    
Moisture  
Dew Point 39 °F    
Average Humidity 34    
Maximum Humidity 53    
Minimum Humidity 19    
Precipitation  
Precipitation 0.00 in - - ()
Sea Level Pressure  
Sea Level Pressure 29.87 in    
Wind  
Wind Speed 12 mph (NNE)    
Max Wind Speed 18 mph    
Max Gust Speed 23 mph    
Visibility 10 miles    
Events      
Averages and records for this station are not official NWS values.
T = Trace of Precipitation, MM = Missing Value Source: NWS Daily Summary

Daily Weather History Graph

Daily Weather History Graph

Search for Another Location

Airport or City:

Trip Planner

Search our weather history database for the weather conditions in past years. The results will help you decide how hot, cold, wet, or windy it might be!

Date:

Astronomy

May. 05, 2013 Rise Set
Actual Time 5:47 AM PDT 8:27 PM PDT
Civil Twilight 5:12 AM PDT 9:02 PM PDT
Nautical Twilight 4:28 AM PDT 9:46 PM PDT
Astronomical Twilight 3:37 AM PDT 10:38 PM PDT
Moon 3:37 AM PDT (5/5) 4:17 PM PDT (5/5)
Length of Visible Light 15h 49m
Length of Day
14h 40m
Waning Crescent, 17% of the Moon is Illuminated
May 5
Waning Crescent
May 9
New
May 17
First Quarter
May 24
Full
May 31
Last Quarter

Hourly Weather History & Observations

Time (PDT) Temp. Dew Point Humidity Pressure Visibility Wind Dir Wind Speed Gust Speed Precip Events Conditions
12:53 AM 63.0 °F 39.0 °F 41% 29.99 in 10.0 mi NNE 8.1 mph - N/A   Clear
1:53 AM 64.0 °F 36.0 °F 35% 29.98 in 10.0 mi NNE 11.5 mph - N/A   Clear
2:53 AM 63.0 °F 37.0 °F 38% 29.96 in 10.0 mi NNE 13.8 mph - N/A   Clear
3:53 AM 61.0 °F 37.9 °F 42% 29.96 in 10.0 mi North 10.4 mph - N/A   Clear
4:53 AM 61.0 °F 39.0 °F 44% 29.95 in 10.0 mi NNE 11.5 mph - N/A   Clear
5:53 AM 59.0 °F 39.9 °F 49% 29.95 in 10.0 mi NNE 12.7 mph - N/A   Clear
6:53 AM 57.9 °F 41.0 °F 53% 29.94 in 10.0 mi North 13.8 mph 20.7 mph N/A   Clear
7:53 AM 60.1 °F 41.0 °F 49% 29.95 in 10.0 mi NNE 11.5 mph 19.6 mph N/A   Clear
8:53 AM 62.1 °F 42.1 °F 48% 29.94 in 10.0 mi North 11.5 mph - N/A   Clear
9:53 AM 66.0 °F 39.9 °F 38% 29.93 in 10.0 mi North 16.1 mph 21.9 mph N/A   Clear
10:53 AM 69.8 °F 39.2 °F 33% 29.92 in 10.0 mi North 18.4 mph - N/A   Clear
11:53 AM 73.0 °F 39.9 °F 30% 29.89 in 10.0 mi North 17.3 mph - N/A   Clear
12:53 PM 75.9 °F 37.0 °F 24% 29.87 in 10.0 mi North 10.4 mph - N/A   Clear
1:53 PM 78.1 °F 37.0 °F 23% 29.85 in 10.0 mi North 16.1 mph 21.9 mph N/A   Clear
2:53 PM 80.1 °F 36.0 °F 20% 29.83 in 10.0 mi North 16.1 mph 23.0 mph N/A   Clear
3:53 PM 81.0 °F 35.1 °F 19% 29.81 in 10.0 mi North 13.8 mph 21.9 mph N/A   Clear
4:53 PM 80.1 °F 37.0 °F 21% 29.78 in 10.0 mi North 13.8 mph - N/A   Clear
5:53 PM 79.0 °F 37.0 °F 22% 29.77 in 10.0 mi North 15.0 mph - N/A   Clear
6:53 PM 77.0 °F 36.0 °F 23% 29.77 in 10.0 mi North 17.3 mph 23.0 mph N/A   Clear
7:53 PM 73.9 °F 37.9 °F 27% 29.77 in 10.0 mi North 11.5 mph - N/A   Clear
8:53 PM 71.1 °F 39.0 °F 31% 29.78 in 10.0 mi NNE 9.2 mph - N/A   Clear
9:53 PM 70.0 °F 41.0 °F 35% 29.79 in 10.0 mi North 10.4 mph - N/A   Clear
10:53 PM 70.0 °F 43.0 °F 38% 29.80 in 10.0 mi NNE 6.9 mph - N/A   Clear
11:53 PM 69.1 °F 44.1 °F 40% 29.80 in 10.0 mi NNE 8.1 mph - N/A   Clear